When you browse on this site, cookies collect data to enhance your experience and personalize the content and advertising you see.
Visit our Privacy Policy to learn more. By continuing to use the site, you agree to this use of cookies and data.
  • In United Kingdom
  • List of Countries
  • For 7 days
  • Water Temperature
  • Satellite Maps
  • Weather Map
  • Weather Widgets
  • user-avatar
    Login

    Hourly Weather Meriden

    Today, 16 June, Sunday

    Time Temperature Precipitation Wind Pressure Humidity
    00:00 +21°C° 0 mm 3 mps 754 mmHg 57%
    01:00 +21°C° 0 mm 3 mps 754 mmHg 58%
    02:00 +20°C° 0.1 mm 3 mps 753 mmHg 66%
    03:00 +19°C° 0.1 mm 3 mps 753 mmHg 73%
    04:00 +18°C° 0.1 mm 2 mps 753 mmHg 81%
    05:00 +18°C° 0.4 mm 2 mps 753 mmHg 84%
    06:00 +18°C° 0.4 mm 2 mps 753 mmHg 88%
    07:00 +18°C° 0.4 mm 2 mps 753 mmHg 92%
    08:00 +19°C° 0 mm 2 mps 752 mmHg 84%
    09:00 +21°C° 0 mm 3 mps 752 mmHg 75%
    10:00 +24°C° 0 mm 3 mps 751 mmHg 67%
    11:00 +24°C° 0.5 mm 3 mps 751 mmHg 72%
    12:00 +22°C° 0.5 mm 3 mps 751 mmHg 76%
    13:00 +23°C° 0.5 mm 2 mps 751 mmHg 81%
    14:00 +21°C° 1.1 mm 2 mps 751 mmHg 85%
    15:00 +21°C° 1.1 mm 1 mps 750 mmHg 90%
    16:00 +19°C° 1.1 mm 0 mps 750 mmHg 95%
    17:00 +21°C° 0.3 mm 1 mps 750 mmHg 94%
    18:00 +21°C° 0.3 mm 1 mps 750 mmHg 94%
    19:00 +21°C° 0.3 mm 1 mps 751 mmHg 94%
    20:00 +21°C° 0 mm 1 mps 751 mmHg 94%
    21:00 +20°C° 0 mm 1 mps 751 mmHg 95%
    22:00 +20°C° 0 mm 1 mps 751 mmHg 95%
    23:00 +20°C° 0 mm 1 mps 751 mmHg 94%

    Tomorrow, 17 June, Monday

    Time Temperature Precipitation Wind Pressure Humidity
    00:00 +20°C° 0 mm 1 mps 751 mmHg 94%
    01:00 +20°C° 0 mm 1 mps 751 mmHg 93%
    02:00 +19°C° 0 mm 1 mps 752 mmHg 93%
    03:00 +19°C° 0 mm 1 mps 752 mmHg 93%
    04:00 +19°C° 0 mm 1 mps 752 mmHg 94%
    05:00 +20°C° 0 mm 1 mps 752 mmHg 90%
    06:00 +21°C° 0 mm 1 mps 753 mmHg 86%
    07:00 +22°C° 0 mm 1 mps 754 mmHg 83%
    08:00 +24°C° 0 mm 1 mps 754 mmHg 72%
    09:00 +26°C° 0 mm 1 mps 754 mmHg 61%
    10:00 +26°C° 0 mm 0 mps 754 mmHg 50%
    11:00 +29°C° 0 mm 1 mps 754 mmHg 48%
    12:00 +30°C° 0 mm 1 mps 754 mmHg 46%
    13:00 +31°C° 0 mm 1 mps 754 mmHg 44%
    14:00 +29°C° 0 mm 1 mps 754 mmHg 50%
    15:00 +28°C° 0 mm 2 mps 754 mmHg 56%
    16:00 +26°C° 0 mm 3 mps 753 mmHg 62%
    17:00 +25°C° 0.1 mm 2 mps 754 mmHg 68%
    18:00 +24°C° 0.1 mm 2 mps 754 mmHg 74%
    19:00 +23°C° 0.1 mm 2 mps 754 mmHg 80%
    20:00 +21°C° 0 mm 2 mps 754 mmHg 82%
    21:00 +20°C° 0 mm 2 mps 754 mmHg 85%
    22:00 +20°C° 0 mm 2 mps 754 mmHg 87%
    23:00 +20°C° 0.1 mm 1 mps 754 mmHg 90%

    Day after tomorrow, 18 June, Tuesday

    Time Temperature Precipitation Wind Pressure Humidity
    00:00 +20°C° 0.1 mm 1 mps 754 mmHg 93%
    01:00 +20°C° 0.1 mm 1 mps 753 mmHg 96%
    02:00 +20°C° 0.3 mm 1 mps 753 mmHg 96%
    03:00 +18°C° 0.3 mm 0 mps 753 mmHg 96%
    04:00 +19°C° 0.3 mm 0 mps 752 mmHg 97%
    05:00 +19°C° 0 mm 0 mps 753 mmHg 96%
    06:00 +20°C° 0 mm 0 mps 753 mmHg 95%
    07:00 +20°C° 0 mm 0 mps 753 mmHg 94%
    08:00 +21°C° 0.1 mm 0 mps 753 mmHg 91%
    09:00 +24°C° 0.1 mm 1 mps 753 mmHg 88%
    10:00 +25°C° 0.1 mm 1 mps 753 mmHg 85%
    11:00 +25°C° 0.9 mm 1 mps 752 mmHg 85%
    12:00 +26°C° 0.9 mm 2 mps 752 mmHg 85%
    13:00 +26°C° 0.9 mm 2 mps 752 mmHg 85%
    14:00 +26°C° 1.1 mm 2 mps 751 mmHg 86%
    15:00 +26°C° 1.1 mm 2 mps 751 mmHg 86%
    16:00 +26°C° 1.1 mm 2 mps 751 mmHg 87%
    17:00 +25°C° 0.6 mm 2 mps 751 mmHg 88%
    18:00 +24°C° 0.6 mm 1 mps 751 mmHg 90%
    19:00 +24°C° 0.6 mm 1 mps 751 mmHg 92%
    20:00 +23°C° 0 mm 1 mps 751 mmHg 93%
    21:00 +22°C° 0 mm 1 mps 751 mmHg 94%
    22:00 +21°C° 0 mm 1 mps 751 mmHg 95%
    23:00 +21°C° 0 mm 1 mps 751 mmHg 95%

    19 June, Wednesday

    Time Temperature Precipitation Wind Pressure Humidity
    00:00 +21°C° 0 mm 1 mps 751 mmHg 95%
    01:00 +18°C° 0 mm 0 mps 751 mmHg 96%
    02:00 +18°C° 0 mm 0 mps 750 mmHg 95%
    03:00 +18°C° 0 mm 0 mps 750 mmHg 95%
    04:00 +18°C° 0 mm 0 mps 750 mmHg 95%
    05:00 +18°C° 0 mm 0 mps 750 mmHg 95%
    06:00 +19°C° 0 mm 0 mps 750 mmHg 94%
    07:00 +21°C° 0 mm 1 mps 750 mmHg 94%
    08:00 +21°C° 1.1 mm 1 mps 750 mmHg 95%
    09:00 +21°C° 1.1 mm 1 mps 750 mmHg 96%
    10:00 +21°C° 1.1 mm 1 mps 750 mmHg 97%
    11:00 +21°C° 4 mm 1 mps 750 mmHg 97%
    12:00 +20°C° 4 mm 2 mps 750 mmHg 97%
    13:00 +20°C° 4 mm 2 mps 749 mmHg 98%
    14:00 +20°C° 3.1 mm 2 mps 749 mmHg 98%
    15:00 +20°C° 3.1 mm 2 mps 748 mmHg 98%
    16:00 +20°C° 3.1 mm 2 mps 748 mmHg 98%
    17:00 +20°C° 1.4 mm 2 mps 748 mmHg 98%
    18:00 +20°C° 1.4 mm 2 mps 748 mmHg 98%
    19:00 +20°C° 1.4 mm 2 mps 748 mmHg 98%
    20:00 +20°C° 5 mm 2 mps 747 mmHg 98%
    21:00 +20°C° 5 mm 2 mps 747 mmHg 98%
    22:00 +20°C° 5 mm 3 mps 747 mmHg 98%
    23:00 +20°C° 1.8 mm 3 mps 746 mmHg 98%

    20 June, Thursday

    Time Temperature Precipitation Wind Pressure Humidity
    00:00 +20°C° 1.8 mm 3 mps 746 mmHg 97%
    01:00 +19°C° 1.8 mm 3 mps 746 mmHg 97%
    02:00 +19°C° 0 mm 3 mps 746 mmHg 96%
    03:00 +19°C° 0 mm 3 mps 746 mmHg 95%
    04:00 +19°C° 0 mm 3 mps 747 mmHg 95%
    05:00 +19°C° 0 mm 3 mps 748 mmHg 92%
    06:00 +20°C° 0 mm 3 mps 748 mmHg 89%
    07:00 +20°C° 0 mm 3 mps 749 mmHg 86%
    08:00 +21°C° 0 mm 3 mps 749 mmHg 80%
    09:00 +24°C° 0 mm 3 mps 749 mmHg 73%
    10:00 +25°C° 0 mm 3 mps 749 mmHg 66%
    11:00 +27°C° 0 mm 2 mps 749 mmHg 59%
    12:00 +28°C° 0 mm 2 mps 749 mmHg 53%
    13:00 +30°C° 0 mm 1 mps 749 mmHg 46%
    14:00 +30°C° 0 mm 2 mps 749 mmHg 48%
    15:00 +29°C° 0 mm 2 mps 749 mmHg 51%
    16:00 +28°C° 0 mm 3 mps 749 mmHg 53%
    17:00 +26°C° 0 mm 3 mps 749 mmHg 61%
    18:00 +24°C° 0 mm 3 mps 749 mmHg 70%
    19:00 +21°C° 0 mm 3 mps 750 mmHg 78%
    20:00 +20°C° 0 mm 3 mps 750 mmHg 81%
    21:00 +20°C° 0 mm 2 mps 750 mmHg 83%
    22:00 +19°C° 0 mm 2 mps 750 mmHg 86%
    23:00 +19°C° 0 mm 2 mps 750 mmHg 87%

    21 June, Friday

    Time Temperature Precipitation Wind Pressure Humidity
    00:00 +18°C° 0 mm 2 mps 749 mmHg 89%
    01:00 +18°C° 0 mm 2 mps 749 mmHg 90%
    02:00 +18°C° 1.2 mm 2 mps 749 mmHg 92%
    03:00 +18°C° 1.2 mm 2 mps 748 mmHg 94%
    04:00 +17°C° 1.2 mm 2 mps 748 mmHg 96%
    05:00 +17°C° 1.3 mm 2 mps 748 mmHg 97%
    06:00 +17°C° 1.3 mm 3 mps 748 mmHg 97%
    07:00 +17°C° 1.3 mm 3 mps 748 mmHg 97%
    08:00 +18°C° 0.5 mm 3 mps 747 mmHg 97%
    09:00 +18°C° 0.5 mm 3 mps 747 mmHg 97%
    10:00 +18°C° 0.5 mm 4 mps 747 mmHg 97%
    11:00 +19°C° 0.1 mm 3 mps 747 mmHg 96%
    12:00 +20°C° 0.1 mm 3 mps 746 mmHg 95%
    13:00 +20°C° 0.1 mm 3 mps 746 mmHg 94%
    14:00 +20°C° 1.1 mm 3 mps 746 mmHg 95%
    15:00 +20°C° 1.1 mm 3 mps 745 mmHg 96%
    16:00 +20°C° 1.1 mm 2 mps 745 mmHg 97%
    17:00 +20°C° 1 mm 2 mps 745 mmHg 97%
    18:00 +20°C° 1 mm 2 mps 745 mmHg 97%
    19:00 +22°C° 1 mm 1 mps 745 mmHg 97%
    20:00 +21°C° 0.1 mm 1 mps 746 mmHg 97%
    21:00 +20°C° 0.1 mm 1 mps 746 mmHg 96%
    22:00 +20°C° 0.1 mm 1 mps 746 mmHg 96%
    23:00 +20°C° 0 mm 1 mps 746 mmHg 95%
    Show more